Flag for China Weather past 2 weeks in Kunming, Yunnan, China

Now
73 °F

Scattered clouds.


Feels Like: 76 °F
Forecast: 62 / 74 °F
Wind: 13 mph from Southwest

Location: Kunming Airport

Current Time: Aug 22, 2014 at 4:58:28 PM

Latest Report: Aug 22, 2014 at 4:00 PM


Visibility: N/A

Pressure: 30.09 "Hg

Humidity: 61%

Dew point: 59 °F

Location of KunmingLocation

Historic Weather in Kunming — Graph

°F

Kunming temperature yesterday

Maximum temperature yesterday: 72 °F (at 2:00 PM)
Minimum temperature yesterday: 54 °F (at 7:00 AM)
Average temperature yesterday: 64 °F

Past Weeks' High & Low Weather Summary

 TemperatureHumidityPressure
High81 °F (Aug 7, 3:00 PM)100% (Aug 8, 6:00 AM)30.27 "Hg (Aug 8, 6:00 AM)
Low54 °F (Aug 20, 6:00 AM)48% (Aug 7, 3:00 PM)29.89 "Hg (Aug 11, 5:00 PM)
Average66 °F85%30.08 "Hg
* Reported Aug 7 3:00 PM — Aug 22 3:00 PM, Kunming, Weather by CustomWeather, © 2014

Note: Actual official high and low records may vary slightly from our data, if they occured in-between our weather recording intervals... More about our weather records

Advertising

Kunming weather history for previous 24 hours

 ConditionsComfort  
Time TempWeatherWind HumidityBarometerVisibility
3:00 PM
Aug 22
75 °FScattered clouds.15 mph61%30.09 "HgN/A
2:00 PM73 °FScattered clouds.13 mph65%30.12 "HgN/A
1:00 PM72 °FBroken clouds.10 mph69%30.15 "HgN/A
12:00 PM70 °FScattered clouds.10 mph73%30.18 "HgN/A
11:00 AM68 °FScattered clouds.13 mph78%30.18 "HgN/A
10:00 AM66 °FScattered clouds.15 mph83%30.18 "HgN/A
9:00 AM64 °FBroken clouds.13 mph94%30.15 "Hg6 mi
8:00 AM63 °FMore clouds than sun.8 mph100%30.15 "Hg6 mi
7:00 AM61 °FMore clouds than sun.8 mph100%30.12 "Hg6 mi
6:00 AM61 °FMostly cloudy.8 mph100%30.12 "Hg6 mi
5:00 AM63 °FMostly cloudy.8 mph94%30.12 "Hg6 mi
4:00 AM63 °FMostly cloudy.10 mph94%30.12 "Hg6 mi
3:00 AM63 °FMostly cloudy.8 mph100%30.15 "Hg6 mi
2:00 AM63 °FPassing clouds.10 mph94%30.15 "Hg5 mi
1:00 AM63 °FPassing clouds.13 mph94%30.15 "Hg4 mi
12:00 AM63 °FPassing clouds.10 mph94%30.15 "Hg4 mi
11:00 PM
Aug 21
64 °FPassing clouds.8 mph88%30.15 "Hg5 mi
10:00 PM64 °FPassing clouds.6 mph88%30.12 "Hg5 mi
9:00 PM66 °FClear.6 mph78%30.09 "Hg10 mi
8:00 PM66 °FPassing clouds.6 mph78%30.07 "HgN/A
7:00 PM70 °FScattered clouds.8 mph69%30.07 "HgN/A
6:00 PM70 °FScattered clouds.10 mph64%30.07 "HgN/A
5:00 PM72 °FScattered clouds.13 mph57%30.07 "HgN/A
4:00 PM72 °FScattered clouds.10 mph57%30.09 "HgN/A
Weather by CustomWeather, © 2014

See weather overviewHow to use our weather pages